SWR3ZC LSZH-LSGG

Flight info

Callsign SWR3ZC
Flight time N/A
Altitude 18000
Route VEBIT T50 ROTOS Z669 ULMES
Aircraft A320/M-SDE3FGHIRWY/LB1

Departure

Time 2026-04-26 22:44
Airport Zürich Airport (LSZH)

Arrival

Time N/A
Airport Geneva International Airport (LSGG)
Time Latitude Longitude Altitude Speed Heading
2026-04-26 22:20 47.45409 8.55946 1411 ft 0 kts 186°
2026-04-26 22:32 47.45412 8.55946 1407 ft 3 kts 185°
2026-04-26 22:33 47.45439 8.55949 1407 ft 4 kts 180°
2026-04-26 22:33 47.45489 8.55933 1411 ft 4 kts 133°
2026-04-26 22:33 47.45497 8.55914 1412 ft 1 kts 96°
2026-04-26 22:34 47.45497 8.55910 1412 ft 0 kts 96°
2026-04-26 22:36 47.45497 8.55913 1412 ft 2 kts 96°
2026-04-26 22:37 47.45492 8.55979 1410 ft 11 kts 96°
2026-04-26 22:37 47.45481 8.56127 1407 ft 17 kts 96°
2026-04-26 22:37 47.45512 8.56283 1410 ft 18 kts 52°
2026-04-26 22:37 47.45590 8.56433 1414 ft 18 kts 69°
2026-04-26 22:38 47.45580 8.56639 1418 ft 23 kts 96°
2026-04-26 22:38 47.45565 8.56877 1420 ft 22 kts 95°
2026-04-26 22:38 47.45558 8.56991 1421 ft 6 kts 86°
2026-04-26 22:38 47.45579 8.57017 1422 ft 1 kts
2026-04-26 22:40 47.45581 8.57018 1423 ft 1 kts
2026-04-26 22:40 47.45593 8.57018 1424 ft 3 kts
2026-04-26 22:40 47.45627 8.57020 1425 ft 8 kts
2026-04-26 22:41 47.45662 8.56985 1424 ft 3 kts 284°
2026-04-26 22:41 47.45668 8.56934 1424 ft 0 kts 277°
2026-04-26 22:43 47.45669 8.56918 1423 ft 8 kts 277°
2026-04-26 22:43 47.45705 8.56426 1416 ft 88 kts 276°
2026-04-26 22:43 47.45795 8.55193 1400 ft 152 kts 276°
2026-04-26 22:43 47.45895 8.53555 1903 ft 161 kts 275°
2026-04-26 22:44 47.45963 8.51822 2519 ft 176 kts 275°
2026-04-26 22:44 47.46000 8.49951 3096 ft 186 kts 269°
2026-04-26 22:44 47.45919 8.47963 3571 ft 204 kts 260°
2026-04-26 22:44 47.45210 8.46066 3886 ft 226 kts 222°
2026-04-26 22:45 47.44005 8.44455 4523 ft 236 kts 223°
2026-04-26 22:45 47.42922 8.42625 5447 ft 241 kts 231°
2026-04-26 22:45 47.41847 8.40557 5933 ft 266 kts 233°
2026-04-26 22:45 47.40727 8.38298 6710 ft 276 kts 234°
2026-04-26 22:46 47.39602 8.35971 7635 ft 280 kts 235°
2026-04-26 22:46 47.38561 8.33531 8589 ft 283 kts 243°
2026-04-26 22:46 47.37650 8.30951 9561 ft 285 kts 244°
2026-04-26 22:46 47.36726 8.28336 10458 ft 291 kts 244°
2026-04-26 22:47 47.35754 8.25588 10828 ft 314 kts 244°
2026-04-26 22:47 47.34723 8.22683 11454 ft 325 kts 243°
2026-04-26 22:47 47.33665 8.19714 12264 ft 329 kts 244°
2026-04-26 22:47 47.32610 8.16750 13100 ft 333 kts 244°
2026-04-26 22:48 47.31531 8.13714 13943 ft 336 kts 244°
2026-04-26 22:48 47.30440 8.10646 14677 ft 340 kts 244°
2026-04-26 22:48 47.29336 8.07541 15378 ft 344 kts 244°
2026-04-26 22:48 47.28204 8.04359 16097 ft 348 kts 244°
2026-04-26 22:49 47.27091 8.01225 16790 ft 352 kts 245°
2026-04-26 22:49 47.26112 7.97914 17477 ft 355 kts 250°
2026-04-26 22:49 47.25168 7.94529 18041 ft 360 kts 250°
2026-04-26 22:49 47.24215 7.91112 18195 ft 359 kts 250°
2026-04-26 22:50 47.23285 7.87799 18224 ft 343 kts 250°
2026-04-26 22:50 47.22380 7.84588 18227 ft 338 kts 250°
2026-04-26 22:50 47.21480 7.81406 18221 ft 337 kts 250°
2026-04-26 22:50 47.20582 7.78225 18221 ft 336 kts 250°
2026-04-26 22:51 47.19689 7.75055 18221 ft 336 kts 250°
2026-04-26 22:51 47.18633 7.71982 18227 ft 338 kts 239°
2026-04-26 22:51 47.17211 7.69212 18222 ft 340 kts 234°
2026-04-26 22:51 47.15742 7.66496 18223 ft 340 kts 234°
2026-04-26 22:52 47.14272 7.63776 18223 ft 340 kts 234°
2026-04-26 22:52 47.12800 7.61051 18219 ft 340 kts 234°
2026-04-26 22:52 47.11333 7.58333 18216 ft 340 kts 234°
2026-04-26 22:52 47.09862 7.55611 18224 ft 340 kts 234°
2026-04-26 22:53 47.08391 7.52894 18224 ft 340 kts 234°
2026-04-26 22:53 47.06917 7.50173 18228 ft 340 kts 234°
2026-04-26 22:53 47.05443 7.47456 18208 ft 341 kts 234°
2026-04-26 22:53 47.03967 7.44742 18212 ft 341 kts 234°
2026-04-26 22:54 47.02490 7.42027 18211 ft 341 kts 234°
2026-04-26 22:54 47.01012 7.39314 18204 ft 341 kts 233°
2026-04-26 22:54 46.99529 7.36604 18202 ft 341 kts 233°
2026-04-26 22:54 46.98047 7.33907 18085 ft 337 kts 233°
2026-04-26 22:55 46.96589 7.31262 17815 ft 330 kts 233°
2026-04-26 22:55 46.95158 7.28662 17552 ft 326 kts 233°
2026-04-26 22:55 46.93743 7.26080 17281 ft 325 kts 233°
2026-04-26 22:55 46.92336 7.23507 17028 ft 323 kts 233°
2026-04-26 22:56 46.90936 7.20945 16770 ft 322 kts 233°
2026-04-26 22:56 46.89542 7.18400 16513 ft 320 kts 233°
2026-04-26 22:56 46.88152 7.15868 16260 ft 318 kts 233°
2026-04-26 22:56 46.86768 7.13351 16012 ft 317 kts 233°
2026-04-26 22:57 46.85387 7.10847 15760 ft 316 kts 233°
2026-04-26 22:57 46.84013 7.08359 15510 ft 314 kts 233°
2026-04-26 22:57 46.82643 7.05884 15268 ft 313 kts 233°
2026-04-26 22:57 46.81281 7.03422 15023 ft 311 kts 233°
2026-04-26 22:58 46.79944 7.01003 14789 ft 310 kts 233°
2026-04-26 22:58 46.78593 6.98558 14548 ft 308 kts 233°
2026-04-26 22:58 46.77250 6.96130 14315 ft 307 kts 233°
2026-04-26 22:58 46.75910 6.93712 14078 ft 306 kts 233°
2026-04-26 22:59 46.74578 6.91304 13816 ft 304 kts 233°
2026-04-26 22:59 46.73255 6.88912 13553 ft 303 kts 232°
2026-04-26 22:59 46.71934 6.86529 13284 ft 302 kts 232°
2026-04-26 22:59 46.70615 6.84156 13023 ft 300 kts 232°
2026-04-26 23:00 46.69300 6.81801 12767 ft 299 kts 232°
2026-04-26 23:00 46.67991 6.79453 12511 ft 298 kts 232°
2026-04-26 23:00 46.66690 6.77112 12256 ft 297 kts 232°
2026-04-26 23:00 46.65399 6.74801 12005 ft 292 kts 231°
2026-04-26 23:01 46.64078 6.72568 11657 ft 290 kts 230°
2026-04-26 23:01 46.62734 6.70384 11290 ft 289 kts 229°
2026-04-26 23:01 46.61383 6.68218 10912 ft 289 kts 229°
2026-04-26 23:01 46.60034 6.66056 10538 ft 288 kts 229°
2026-04-26 23:02 46.58691 6.63898 10159 ft 288 kts 229°
2026-04-26 23:02 46.57352 6.61740 9741 ft 287 kts 229°
2026-04-26 23:02 46.56017 6.59588 9344 ft 285 kts 229°
2026-04-26 23:02 46.54696 6.57452 8954 ft 283 kts 229°
2026-04-26 23:03 46.53383 6.55329 8544 ft 282 kts 229°
2026-04-26 23:03 46.52078 6.53217 8146 ft 280 kts 229°
2026-04-26 23:03 46.50800 6.51153 8012 ft 268 kts 229°
2026-04-26 23:03 46.49586 6.49195 7922 ft 254 kts 228°
2026-04-26 23:04 46.48415 6.47309 7819 ft 252 kts 228°
2026-04-26 23:04 46.47205 6.45438 7557 ft 258 kts 226°
2026-04-26 23:04 46.45935 6.43589 7155 ft 258 kts 226°
2026-04-26 23:04 46.44679 6.41739 6807 ft 257 kts 226°
2026-04-26 23:05 46.43436 6.39892 6478 ft 255 kts 226°
2026-04-26 23:05 46.42199 6.38054 6139 ft 253 kts 226°
2026-04-26 23:05 46.40992 6.36262 5807 ft 251 kts 225°
2026-04-26 23:05 46.39763 6.34440 5469 ft 247 kts 225°
2026-04-26 23:06 46.38588 6.32700 5156 ft 236 kts 225°
2026-04-26 23:06 46.37479 6.31059 4855 ft 228 kts 225°
2026-04-26 23:06 46.36384 6.29438 4554 ft 222 kts 225°
2026-04-26 23:06 46.35318 6.27863 4258 ft 215 kts 225°
2026-04-26 23:07 46.34286 6.26336 3976 ft 209 kts 225°
2026-04-26 23:07 46.33600 6.25323 3801 ft 209 kts 226°
2026-04-26 23:07 46.32266 6.23353 3461 ft 201 kts 225°
2026-04-26 23:07 46.31314 6.21949 3175 ft 190 kts 225°
2026-04-26 23:08 46.30417 6.20626 2916 ft 177 kts 225°
2026-04-26 23:08 46.29588 6.19405 2713 ft 161 kts 226°
2026-04-26 23:08 46.28831 6.18289 2483 ft 150 kts 225°
2026-04-26 23:08 46.28117 6.17238 2280 ft 143 kts 226°
2026-04-26 23:09 46.27433 6.16232 2088 ft 139 kts 226°
2026-04-26 23:09 46.26763 6.15247 1906 ft 136 kts 226°
2026-04-26 23:09 46.26106 6.14283 1729 ft 134 kts 226°
2026-04-26 23:09 46.25462 6.13328 1552 ft 133 kts 226°
2026-04-26 23:10 46.24814 6.12376 1402 ft 132 kts 224°
2026-04-26 23:10 46.24214 6.11546 1399 ft 112 kts 226°
2026-04-26 23:10 46.23621 6.10589 1886 ft 135 kts 229°
2026-04-26 23:10 46.22969 6.09513 2685 ft 148 kts 230°
2026-04-26 23:11 46.22312 6.08404 3344 ft 144 kts 229°
2026-04-26 23:11 46.21688 6.07363 3902 ft 135 kts 230°
2026-04-26 23:11 46.21055 6.06288 4221 ft 145 kts 229°
2026-04-26 23:11 46.20369 6.05140 4562 ft 159 kts 229°
2026-04-26 23:12 46.19571 6.03975 4973 ft 168 kts 217°
2026-04-26 23:12 46.18535 6.03175 5434 ft 179 kts 197°
2026-04-26 23:12 46.17249 6.02892 5812 ft 197 kts 179°
2026-04-26 23:12 46.15836 6.03204 6204 ft 216 kts 162°
2026-04-26 23:13 46.14505 6.04338 6755 ft 226 kts 133°
2026-04-26 23:13 46.13755 6.06302 6966 ft 229 kts 102°
2026-04-26 23:13 46.13823 6.08563 7008 ft 228 kts 75°
2026-04-26 23:13 46.14397 6.10678 7011 ft 227 kts 55°
2026-04-26 23:14 46.15522 6.12253 7008 ft 226 kts 35°
2026-04-26 23:14 46.16847 6.13486 7012 ft 226 kts 31°
2026-04-26 23:14 46.18198 6.14652 7014 ft 226 kts 30°
2026-04-26 23:14 46.19510 6.15911 7013 ft 227 kts 35°
2026-04-26 23:15 46.20780 6.17257 7009 ft 226 kts 36°
2026-04-26 23:15 46.22036 6.18611 7013 ft 225 kts 36°
2026-04-26 23:15 46.23269 6.20000 7011 ft 225 kts 39°
2026-04-26 23:15 46.24476 6.21444 7009 ft 225 kts 39°
2026-04-26 23:16 46.25679 6.22893 7014 ft 225 kts 39°
2026-04-26 23:16 46.26894 6.24312 7006 ft 225 kts 34°
2026-04-26 23:16 46.28286 6.25350 6728 ft 225 kts 19°
2026-04-26 23:16 46.29807 6.25807 6365 ft 223 kts 359°
2026-04-26 23:17 46.31356 6.25447 5747 ft 229 kts 341°
2026-04-26 23:17 46.32605 6.24089 5194 ft 230 kts 301°
2026-04-26 23:17 46.32933 6.21871 4644 ft 231 kts 260°
2026-04-26 23:17 46.32177 6.19875 4096 ft 231 kts 218°
2026-04-26 23:18 46.30725 6.18955 3534 ft 230 kts 193°
2026-04-26 23:18 46.29150 6.18745 3135 ft 222 kts 173°